Weather in Ogbomosho

Nigeria     8°08′08″N   4°14′14″E
temp.,
°C
wind,
m/s
gust,
m/s
humid.,
%
clouds,
%
prec.,
mm/h
press.,
hPa
HPBL,
m
25 february, thu
thu2501:00+25s232812 0.0 101147
04:00+23wsw23746 0.0 101047
07:00+21wnw23933 0.0 101165
10:00+30wnw22496 0.0 1011888
13:00+38ne22193 0.0 10082271
16:00+38ne321565 0.0 10053319
19:00+32ne231762 0.0 100629
22:00+28s473271 0.0 1009210
26 february, fri
fri2601:00+24ssw398349 0.0 1010429
04:00+23sw129514 0.5 100942
07:00+23ssw288926 1.8 1010243
10:00+29sw455999 0.0 1011758
13:00+37wsw212481 0.0 10082572
16:00+37sw222117 0.0 10053182
19:00+30ssw595057 0.0 1006586
22:00+26s497219 0.0 1009416
27 february, sat
sat2701:00+24ssw368410 0.0 1009397
04:00+23ssw37900 0.0 1008360
07:00+23sw27934 0.0 1010365
10:00+29sw345936 0.0 1011692
13:00+37ssw222820 0.0 10082538
16:00+34sw323162 0.0 10052118
19:00+32ssw484143 0.0 1006378
22:00+27s497113 0.1 1009524
28 february, sun
sun2801:00+24ssw478739 0.1 1008378
04:00+23ssw379112 0.0 1007375
07:00+24ssw378836 0.0 1008499
10:00+28sw226595 0.0 1010603
13:00+37sse243347 0.0 10072292
16:00+36sse332864 0.0 10042706
19:00+24ssw467568 5.8 1006273
22:00+26sw2367100 0.7 100896
1 march, mon
mon101:00+24s2577100 0.7 1008204
04:00+23ssw258433 0.0 1007192
07:00+22s119418 0.0 100924
10:00+28sw226764 0.0 1010619
13:00+35sse243872 0.0 10071923
16:00+35ssw2530100 0.0 10042462
19:00+31ssw3647100 0.0 1005202
22:00+28s486395 0.0 1007487